When you browse on this site, cookies collect data to enhance your experience and personalize the content and advertising you see.
Visit our Privacy Policy to learn more. By continuing to use the site, you agree to this use of cookies and data.
  • en France
  • Liste des pays
  • À 7 jours
  • Température de l'eau
  • Carte météo
  • Widgets météo
  • user-avatar
    Se connecter

    Météo par heure à El-Obejd

    Ce jour, 26 Mai, Mardi

    Heure Température Précipitation Vent Pression Humidité
    00:00 +34°C° 0 mm 3 m/s 709 mmHg 44%
    01:00 +33°C° 0 mm 3 m/s 709 mmHg 45%
    02:00 +32°C° 0 mm 2 m/s 709 mmHg 41%
    03:00 +31°C° 0 mm 2 m/s 709 mmHg 36%
    04:00 +30°C° 0 mm 3 m/s 709 mmHg 31%
    05:00 +30°C° 0 mm 3 m/s 709 mmHg 26%
    06:00 +32°C° 0 mm 4 m/s 710 mmHg 21%
    07:00 +33°C° 0 mm 5 m/s 710 mmHg 15%
    08:00 +34°C° 0 mm 7 m/s 711 mmHg 6%
    09:00 +36°C° 0 mm 6 m/s 711 mmHg 6%
    10:00 +37°C° 0 mm 5 m/s 711 mmHg 6%
    11:00 +40°C° 0 mm 5 m/s 711 mmHg 7%
    12:00 +41°C° 0 mm 4 m/s 710 mmHg 7%
    13:00 +41°C° 0 mm 4 m/s 710 mmHg 7%
    14:00 +42°C° 0 mm 3 m/s 709 mmHg 7%
    15:00 +42°C° 0 mm 3 m/s 709 mmHg 7%
    16:00 +42°C° 0 mm 4 m/s 709 mmHg 7%
    17:00 +42°C° 0 mm 4 m/s 709 mmHg 7%
    18:00 +39°C° 0 mm 3 m/s 709 mmHg 8%
    19:00 +37°C° 0 mm 3 m/s 709 mmHg 8%
    20:00 +36°C° 0 mm 3 m/s 709 mmHg 9%
    21:00 +35°C° 0 mm 3 m/s 709 mmHg 9%
    22:00 +34°C° 0 mm 3 m/s 709 mmHg 9%
    23:00 +33°C° 0 mm 3 m/s 709 mmHg 9%

    Demain, 27 Mai, Mercredi

    Heure Température Précipitation Vent Pression Humidité
    00:00 +31°C° 0 mm 3 m/s 709 mmHg 9%
    01:00 +32°C° 0 mm 4 m/s 709 mmHg 9%
    02:00 +30°C° 0 mm 4 m/s 709 mmHg 9%
    03:00 +29°C° 0 mm 3 m/s 709 mmHg 10%
    04:00 +28°C° 0 mm 2 m/s 709 mmHg 11%
    05:00 +27°C° 0 mm 1 m/s 709 mmHg 11%
    06:00 +28°C° 0 mm 1 m/s 709 mmHg 10%
    07:00 +30°C° 0 mm 2 m/s 710 mmHg 8%
    08:00 +32°C° 0 mm 2 m/s 711 mmHg 7%
    09:00 +34°C° 0 mm 2 m/s 711 mmHg 6%
    10:00 +36°C° 0 mm 3 m/s 711 mmHg 5%
    11:00 +38°C° 0 mm 3 m/s 711 mmHg 5%
    12:00 +39°C° 0 mm 2 m/s 710 mmHg 5%
    13:00 +40°C° 0 mm 2 m/s 710 mmHg 5%
    14:00 +41°C° 0 mm 1 m/s 709 mmHg 5%
    15:00 +41°C° 0 mm 1 m/s 709 mmHg 5%
    16:00 +41°C° 0 mm 1 m/s 709 mmHg 6%
    17:00 +41°C° 0 mm 1 m/s 708 mmHg 6%
    18:00 +39°C° 0 mm 1 m/s 708 mmHg 7%
    19:00 +36°C° 0 mm 1 m/s 709 mmHg 8%
    20:00 +35°C° 0 mm 1 m/s 709 mmHg 10%
    21:00 +34°C° 0 mm 1 m/s 709 mmHg 10%
    22:00 +35°C° 0 mm 2 m/s 709 mmHg 10%
    23:00 +34°C° 0 mm 2 m/s 709 mmHg 10%

    Après-demain, 28 Mai, Jeudi

    Heure Température Précipitation Vent Pression Humidité
    00:00 +34°C° 0 mm 3 m/s 709 mmHg 10%
    01:00 +33°C° 0 mm 3 m/s 709 mmHg 10%
    02:00 +33°C° 0 mm 3 m/s 708 mmHg 10%
    03:00 +31°C° 0 mm 3 m/s 708 mmHg 10%
    04:00 +30°C° 0 mm 3 m/s 709 mmHg 11%
    05:00 +29°C° 0 mm 3 m/s 709 mmHg 11%
    06:00 +30°C° 0 mm 2 m/s 709 mmHg 10%
    07:00 +31°C° 0 mm 1 m/s 710 mmHg 8%
    08:00 +31°C° 0 mm 0 m/s 711 mmHg 7%
    09:00 +35°C° 0 mm 1 m/s 711 mmHg 7%
    10:00 +37°C° 0 mm 2 m/s 710 mmHg 6%
    11:00 +39°C° 0 mm 3 m/s 710 mmHg 5%
    12:00 +40°C° 0 mm 2 m/s 710 mmHg 5%
    13:00 +41°C° 0 mm 2 m/s 709 mmHg 5%
    14:00 +41°C° 0 mm 1 m/s 709 mmHg 5%
    15:00 +41°C° 0 mm 1 m/s 708 mmHg 5%
    16:00 +42°C° 0 mm 1 m/s 708 mmHg 5%
    17:00 +42°C° 0 mm 1 m/s 707 mmHg 5%
    18:00 +40°C° 0 mm 1 m/s 707 mmHg 7%
    19:00 +37°C° 0 mm 1 m/s 708 mmHg 8%
    20:00 +35°C° 0 mm 1 m/s 708 mmHg 9%
    21:00 +34°C° 0 mm 1 m/s 708 mmHg 9%
    22:00 +34°C° 0 mm 1 m/s 708 mmHg 9%
    23:00 +33°C° 0 mm 1 m/s 708 mmHg 10%

    29 Mai, Vendredi

    Heure Température Précipitation Vent Pression Humidité
    00:00 +34°C° 0 mm 2 m/s 708 mmHg 10%
    01:00 +34°C° 0 mm 2 m/s 708 mmHg 10%
    02:00 +33°C° 0 mm 3 m/s 708 mmHg 10%
    03:00 +31°C° 0 mm 2 m/s 708 mmHg 11%
    04:00 +30°C° 0 mm 2 m/s 708 mmHg 12%
    05:00 +29°C° 0 mm 1 m/s 708 mmHg 13%
    06:00 +30°C° 0 mm 2 m/s 709 mmHg 12%
    07:00 +32°C° 0 mm 2 m/s 709 mmHg 10%
    08:00 +35°C° 0 mm 2 m/s 710 mmHg 8%
    09:00 +36°C° 0 mm 3 m/s 710 mmHg 8%
    10:00 +38°C° 0 mm 3 m/s 710 mmHg 7%
    11:00 +41°C° 0 mm 4 m/s 710 mmHg 7%
    12:00 +42°C° 0 mm 4 m/s 709 mmHg 6%
    13:00 +43°C° 0 mm 4 m/s 709 mmHg 6%
    14:00 +44°C° 0 mm 3 m/s 708 mmHg 6%
    15:00 +44°C° 0 mm 4 m/s 707 mmHg 6%
    16:00 +44°C° 0 mm 4 m/s 707 mmHg 6%
    17:00 +44°C° 0 mm 4 m/s 707 mmHg 6%
    18:00 +42°C° 0 mm 4 m/s 707 mmHg 7%
    19:00 +40°C° 0 mm 3 m/s 707 mmHg 8%
    20:00 +38°C° 0 mm 3 m/s 707 mmHg 9%
    21:00 +37°C° 0 mm 3 m/s 707 mmHg 9%
    22:00 +36°C° 0 mm 3 m/s 707 mmHg 10%
    23:00 +35°C° 0 mm 4 m/s 707 mmHg 10%

    30 Mai, Samedi

    Heure Température Précipitation Vent Pression Humidité
    00:00 +34°C° 0 mm 4 m/s 706 mmHg 11%
    01:00 +34°C° 0 mm 4 m/s 706 mmHg 12%
    02:00 +33°C° 0 mm 4 m/s 706 mmHg 12%
    03:00 +32°C° 0 mm 4 m/s 706 mmHg 13%
    04:00 +30°C° 0 mm 4 m/s 706 mmHg 14%
    05:00 +29°C° 0 mm 3 m/s 707 mmHg 15%
    06:00 +31°C° 0 mm 3 m/s 707 mmHg 14%
    07:00 +32°C° 0 mm 2 m/s 708 mmHg 13%
    08:00 +34°C° 0 mm 2 m/s 708 mmHg 12%
    09:00 +36°C° 0 mm 2 m/s 708 mmHg 11%
    10:00 +38°C° 0 mm 2 m/s 709 mmHg 10%
    11:00 +40°C° 0 mm 2 m/s 709 mmHg 9%
    12:00 +41°C° 0 mm 1 m/s 708 mmHg 9%
    13:00 +42°C° 0 mm 1 m/s 708 mmHg 8%
    14:00 +43°C° 0 mm 1 m/s 707 mmHg 8%
    15:00 +43°C° 0 mm 2 m/s 707 mmHg 8%
    16:00 +45°C° 0 mm 2 m/s 706 mmHg 8%
    17:00 +45°C° 0 mm 2 m/s 706 mmHg 8%
    18:00 +43°C° 0 mm 3 m/s 706 mmHg 9%
    19:00 +42°C° 0 mm 3 m/s 707 mmHg 10%
    20:00 +39°C° 0 mm 3 m/s 707 mmHg 11%
    21:00 +38°C° 0 mm 3 m/s 707 mmHg 12%
    22:00 +37°C° 0 mm 3 m/s 707 mmHg 14%
    23:00 +36°C° 0 mm 2 m/s 707 mmHg 15%

    31 Mai, Dimanche

    Heure Température Précipitation Vent Pression Humidité
    00:00 +35°C° 0 mm 2 m/s 707 mmHg 18%
    01:00 +33°C° 0 mm 1 m/s 707 mmHg 21%
    02:00 +33°C° 0 mm 1 m/s 707 mmHg 23%
    03:00 +32°C° 0 mm 1 m/s 708 mmHg 27%
    04:00 +32°C° 0 mm 1 m/s 708 mmHg 31%
    05:00 +32°C° 0 mm 2 m/s 709 mmHg 35%
    06:00 +34°C° 0 mm 2 m/s 709 mmHg 34%
    07:00 +35°C° 0 mm 3 m/s 710 mmHg 34%
    08:00 +36°C° 0 mm 3 m/s 710 mmHg 34%
    09:00 +37°C° 0 mm 4 m/s 710 mmHg 31%
    10:00 +38°C° 0 mm 4 m/s 710 mmHg 28%
    11:00 +41°C° 0 mm 4 m/s 710 mmHg 26%
    12:00 +42°C° 0 mm 3 m/s 710 mmHg 23%
    13:00 +42°C° 0 mm 2 m/s 709 mmHg 19%
    14:00 +43°C° 0 mm 1 m/s 708 mmHg 16%
    15:00 +43°C° 0 mm 2 m/s 708 mmHg 14%
    16:00 +44°C° 0 mm 3 m/s 708 mmHg 12%
    17:00 +44°C° 0 mm 4 m/s 708 mmHg 9%
    18:00 +41°C° 0 mm 5 m/s 708 mmHg 20%
    19:00 +38°C° 0 mm 7 m/s 708 mmHg 31%
    20:00 +34°C° 0 mm 8 m/s 708 mmHg 42%
    21:00 +33°C° 0 mm 7 m/s 708 mmHg 42%
    22:00 +33°C° 0 mm 6 m/s 708 mmHg 42%
    23:00 +33°C° 0 mm 5 m/s 709 mmHg 42%
    Voir plus